Regional Weather Roundup
Issued by NWS Cleveland, OH

Home | Current Version | Previous Version | Graphics & Text | Print | Product List | Glossary On
Versions: 1 2 3 4 5 6 7 8 9 10 11 12 13 14 15 16 17 18 19 20 21 22 23 24 25 26 27 28 29 30 31 32 33 34 35 36 37 38 39 40 41 42 43 44 45 46 47 48 49 50
000
ASUS41 KCLE 190302
RWRCLE
OHIO REGIONAL WEATHER ROUNDUP
NATIONAL WEATHER SERVICE CLEVELAND, OH
1100 PM EDT WED OCT 18 2017

NOTE: "FAIR" INDICATES FEW OR NO CLOUDS BELOW 12,000 FEET WITH NO
SIGNIFICANT WEATHER AND/OR OBSTRUCTIONS TO VISIBILITY.

OHZ001>008-015>018-024>027-034-035-043-044-190400-
   NORTHWEST OHIO

CITY           SKY/WX    TMP DP  RH WIND       PRES   REMARKS
DEFIANCE       CLEAR     55  41  59 S8        30.14R
FINDLAY        CLEAR     49  39  68 S8        30.15R
TOLEDO EXPRESS CLEAR     59  43  55 S12       30.12S
TOLEDO EXEC    CLEAR     58  41  53 S10       30.14R
LIMA           CLEAR     54  43  66 S9        30.16S
$$

OHZ009>014-019>023-028>033-038-089-190400-
   NORTHEAST OHIO

CITY           SKY/WX    TMP DP  RH WIND       PRES   REMARKS
CLE-HOPKINS    CLEAR     59  40  49 S9        30.18S
CLE-LAKEFRONT  CLEAR     58  40  51 S8        30.15S
CUY CO. ARPT   CLEAR     61  41  48 S8        30.17S
LORAIN-ELYRIA  CLEAR     55  36  48 S10       30.16F
ASHTABULA      CLEAR     54  43  66 S5        30.18S
AKRON-CANTON   CLEAR     53  38  56 S8        30.19S
WOOSTER        CLEAR     41  38  89 CALM      30.19S
MANSFIELD      CLEAR     54  40  59 S10       30.18F
YOUNGSTOWN     PTCLDY    56  40  55 S7        30.19F
$$

OHZ042-051>053-060>062-070>072-077>081-190400-
  SOUTHWEST OHIO

CITY           SKY/WX    TMP DP  RH WIND       PRES   REMARKS
CINC-COVINGTON CLEAR     53  46  77 S7        30.20S
CINC-LUNKEN    CLEAR     47  46  97 CALM      30.22R
HAMILTON       CLEAR     44  43  96 CALM      30.21R
DAYTON         CLEAR     56  45  66 S9        30.19S
WRIGHT-PAT AFB CLEAR     55  43  65 S8        30.18S
DAYTON GENERAL CLEAR     52  43  71 S6        30.19S
WILMINGTON     CLEAR     51  44  77 S5        30.20F
$$

OHZ036-037-039>041-045>050-054>059-063>069-073>076-082>088-190400-
  CENTRAL AND SOUTHEAST OHIO

CITY           SKY/WX    TMP DP  RH WIND       PRES   REMARKS
COLUMBUS       CLEAR     56  42  59 S6        30.20S
OSU AIRPORT    CLEAR     55  44  66 S7        30.19F
BOLTON FIELD   CLEAR     54  43  66 S6        30.20F
RICKENBACK AFB CLEAR     52  41  68 S5        30.20F
NEWARK         CLEAR     46  42  86 CALM      30.20S
MARION         CLEAR     51  40  65 S8        30.18S
LANCASTER      CLEAR     42  40  92 CALM      30.21F
ZANESVILLE     CLEAR     48  41  76 CALM      30.21S
NEW PHILLY     NOT AVBL
$$




USA.gov is the U.S. government's official web portal to all federal, state and local government web resources and services.